This demonstration page uses our WeatherBlox Daily Observations layout. Learn more.

Hourly Observations for December 3, 2015

Temp ( °F °C ) Dew Point ( °F °C ) Humidity (%) Winds ( mph kmh ) Pressure ( in mb ) Visibility ( mi km ) Precip ( " mm )
12:15 am 00:15 Clear 27 -3 20 -6.4 78 78 Calm 30.33 1027 10 16.0934 0 0
12:35 am 00:35 Clear 25 -4 21 -6.3 84 84 W 5 7 30.33 1027 10 16.0934 0 0
12:55 am 00:55 Clear 29 -1.9 21 -6.1 73 73 W 3 6 30.33 1027 10 16.0934 0 0
1:15 am 01:15 Clear 29 -1.9 21 -6.2 73 73 W 3 6 30.33 1027 10 16.0934 0 0
1:35 am 01:35 Clear 24 -4.2 19 -7.1 80 80 W 3 6 30.33 1027 10 16.0934 0 0
1:55 am 01:55 Clear 25 -4 20 -6.7 82 82 Calm 30.33 1027 10 16.0934 0 0
2:15 am 02:15 Clear 25 -3.7 20 -6.9 79 79 Calm 30.33 1027 10 16.0934 0 0
2:35 am 02:35 Clear 25 -4.1 20 -6.7 82 82 Calm 30.33 1027 10 16.0934 0 0
2:55 am 02:55 Clear 23 -4.9 20 -6.9 86 86 Calm 30.36 1028 10 16.0934 0 0
3:15 am 03:15 Clear 25 -4.1 20 -6.5 84 84 Calm 30.33 1027 10 16.0934 0 0
3:35 am 03:35 Clear 23 -5 19 -7.2 85 85 Calm 30.36 1028 10 16.0934 0 0
3:55 am 03:55 Clear 23 -4.9 19 -7 85 85 Calm 30.36 1028 10 16.0934 0 0
4:15 am 04:15 Clear 23 -4.8 19 -7.1 84 84 Calm 30.36 1028 10 16.0934 0 0
4:35 am 04:35 Clear 22 -5.5 19 -7.3 87 87 Calm 30.36 1028 10 16.0934 0 0
4:55 am 04:55 Clear 23 -4.9 20 -6.6 88 88 Calm 30.36 1028 10 16.0934 0 0
5:15 am 05:15 Clear 23 -5.2 19 -7 87 87 Calm 30.36 1028 10 16.0934 0 0
5:35 am 05:35 Clear 22 -5.6 19 -7.3 88 88 Calm 30.39 1029 10 16.0934 0 0
5:55 am 05:55 Clear 22 -5.6 19 -7.2 89 89 Calm 30.39 1029 10 16.0934 0 0
6:15 am 06:15 Clear 25 -4.1 21 -6.1 86 86 SW 3 6 30.36 1028 10 16.0934 0 0
6:35 am 06:35 Clear 26 -3.5 21 -6 83 83 SW 5 7 30.36 1028 10 16.0934 0 0
6:55 am 06:55 Clear 26 -3.6 21 -6 84 84 WSW 5 7 30.36 1028 10 16.0934 0 0
7:15 am 07:15 Clear 25 -3.9 21 -6.2 84 84 WSW 5 7 30.39 1029 10 16.0934 0 0
7:35 am 07:35 Clear 25 -3.8 20 -6.4 82 82 Calm 30.36 1028 10 16.0934 0 0
7:55 am 07:55 Sunny 26 -3.6 21 -6.3 82 82 Calm 30.39 1029 10 16.0934 0 0
8:15 am 08:15 Sunny 26 -3.5 21 -6.3 81 81 Calm 30.39 1029 10 16.0934 0 0
8:35 am 08:35 Sunny 27 -2.6 22 -5.7 80 80 SW 3 6 30.39 1029 10 16.0934 0 0
8:55 am 08:55 Sunny 29 -1.6 23 -5.1 77 77 SSW 3 6 30.39 1029 10 16.0934 0 0
9:15 am 09:15 Sunny 31 -0.7 24 -4.5 76 76 SSW 3 6 30.36 1028 10 16.0934 0 0
9:35 am 09:35 Sunny 33 0.4 26 -3.4 76 76 SSW 3 6 30.36 1028 10 16.0934 0 0
9:55 am 09:55 Sunny 35 1.6 28 -2.5 74 74 SSW 7 11 30.33 1027 10 16.0934 0 0
10:15 am 10:15 Sunny 35 1.7 27 -2.6 73 73 SW 5 7 30.33 1027 10 16.0934 0 0
10:35 am 10:35 Sunny 37 2.7 28 -2.5 69 69 SSW 5 7 30.33 1027 10 16.0934 0 0
10:55 am 10:55 Sunny 38 3.5 28 -2.1 67 67 SW 8 13 30.33 1027 10 16.0934 0 0
11:15 am 11:15 Sunny 39 4.1 28 -2 65 65 SW 8 13 30.33 1027 10 16.0934 0 0
11:35 am 11:35 Sunny 41 5.2 28 -2.5 58 58 SW 7 11 30.3 1026 10 16.0934 0 0
11:55 am 11:55 Sunny 43 5.9 29 -1.8 58 58 SW 6 9 30.3 1026 10 16.0934 0 0
12:15 pm 12:15 Sunny 44 6.6 29 -1.7 56 56 SW 7 11 30.3 1026 10 16.0934 0 0
12:35 pm 12:35 Sunny 45 7.1 28 -2.2 52 52 SW 8 13 30.27 1025 10 16.0934 0 0
12:55 pm 12:55 Sunny 46 7.8 30 -1 54 54 SW 6 9 30.24 1024 10 16.0934 0 0
1:15 pm 13:15 Sunny 46 8 30 -1.2 53 53 SW 6 9 30.24 1024 10 16.0934 0 0
1:35 pm 13:35 Sunny 47 8.2 30 -1.2 52 52 SW 7 11 30.24 1024 10 16.0934 0 0
1:55 pm 13:55 Sunny 47 8.5 30 -1.1 51 51 SW 6 9 30.24 1024 10 16.0934 0 0
2:15 pm 14:15 Sunny 49 9.2 31 -0.8 50 50 SW 7 11 30.24 1024 10 16.0934 0 0
2:35 pm 14:35 Sunny 50 10 30 -1.2 46 46 SW 7 11 30.24 1024 10 16.0934 0 0
2:55 pm 14:55 Sunny 50 10.1 29 -1.8 44 44 SSW 6 9 30.24 1024 10 16.0934 0 0
3:15 pm 15:15 Sunny 51 10.5 29 -1.9 42 42 SSW 7 11 30.24 1024 10 16.0934 0 0
3:35 pm 15:35 Sunny 51 10.3 28 -2.4 41 41 SW 6 9 30.24 1024 10 16.0934 0 0
3:55 pm 15:55 Sunny 50 10 29 -1.7 44 44 SW 3 6 30.24 1024 10 16.0934 0 0
4:15 pm 16:15 Sunny 49 9.7 29 -1.5 46 46 Calm 30.24 1024 10 16.0934 0 0
4:35 pm 16:35 Sunny 49 9.7 29 -1.5 46 46 Calm 30.24 1024 10 16.0934 0 0
4:55 pm 16:55 Sunny 47 8.5 30 -0.9 52 52 Calm 30.24 1024 10 16.0934 0 0
5:15 pm 17:15 Clear 45 7.4 31 -0.3 58 58 SSW 3 6 30.27 1025 10 16.0934 0 0
5:35 pm 17:35 Clear 44 6.6 29 -1.8 55 55 SW 3 6 30.27 1025 10 16.0934 0 0
5:55 pm 17:55 Clear 44 6.7 28 -2.5 52 52 SSW 6 9 30.27 1025 10 16.0934 0 0
6:15 pm 18:15 Clear 42 5.8 27 -2.8 54 54 SSW 6 9 30.27 1025 10 16.0934 0 0
6:35 pm 18:35 Clear 41 5.2 26 -3.1 55 55 SW 6 9 30.27 1025 10 16.0934 0 0
6:55 pm 18:55 Clear 40 4.6 26 -3.2 57 57 SW 3 6 30.3 1026 10 16.0934 0 0
7:15 pm 19:15 Clear 41 5.1 26 -3.5 54 54 SSW 5 7 30.3 1026 10 16.0934 0 0
7:35 pm 19:35 Clear 37 2.9 25 -4.1 60 60 Calm 30.33 1027 10 16.0934 0 0
7:55 pm 19:55 Clear 37 2.5 26 -3.6 64 64 Calm 30.33 1027 10 16.0934 0 0
8:15 pm 20:15 Clear 36 2 25 -3.7 66 66 S 3 6 30.39 1029 10 16.0934 0 0
8:35 pm 20:35 Clear 35 1.9 25 -3.7 67 67 Calm 30.39 1029 10 16.0934 0 0
8:55 pm 20:55 Clear 33 0.4 26 -3.5 75 75 Calm 30.36 1028 10 16.0934 0 0
9:15 pm 21:15 Clear 32 0.1 25 -4 74 74 WNW 3 6 30.36 1028 10 16.0934 0 0
9:35 pm 21:35 Clear 31 -0.4 24 -4.3 75 75 Calm 30.39 1029 10 16.0934 0 0
9:55 pm 21:55 Clear 32 0 25 -3.8 76 76 Calm 30.39 1029 10 16.0934 0 0
10:15 pm 22:15 Clear 33 0.5 25 -3.8 73 73 S 3 6 30.39 1029 10 16.0934 0 0
10:35 pm 22:35 Clear 33 0.3 24 -4.5 70 70 S 5 7 30.39 1029 10 16.0934 0 0
10:55 pm 22:55 Clear 30 -1.2 25 -4.1 81 81 Calm 30.42 1030 10 16.0934 0 0
11:15 pm 23:15 Clear 33 0.5 25 -4.1 72 72 SSW 5 7 30.39 1029 10 16.0934 0 0
11:35 pm 23:35 Clear 32 0.1 24 -4.5 72 72 SSW 5 7 30.39 1029 10 16.0934 0 0
11:55 pm 23:55 Clear 32 -0.2 23 -5 70 70 Calm 30.39 1029 10 16.0934 0 0

Powered by AerisWeather